DW3560 Weather Reports


time (UTC)temp
F
wind
direction
speed
knots
gust
knots
rain 1hr
in
rain 24hr
in
rain mn
in
humidity
%
barometer
mb
20260505235503 57 253 0.0 1.7 0.00 0.10 0.10 84 1014.3
20260505235003 57 259 0.0 1.7 0.00 0.10 0.10 84 1014.3
20260505234524 57 273 0.0 0.9 0.00 0.10 0.10 84 1014.3
20260505234003 58 273 0.0 0.9 0.00 0.10 0.10 84 1014.3
20260505233524 58 270 0.0 1.7 0.00 0.10 0.10 84 1014.3
20260505233003 58 297 0.9 3.5 0.00 0.10 0.10 83 1014.3
20260505232503 58 279 0.9 3.5 0.00 0.10 0.10 83 1014.3
20260505232003 58 241 0.9 4.3 0.00 0.10 0.10 84 1014.3
20260505231503 58 266 0.0 4.3 0.00 0.10 0.10 84 1014.3
20260505231003 58 298 0.0 2.6 0.00 0.10 0.10 84 1014.3
20260505230524 57 290 0.0 2.6 0.00 0.10 0.10 85 1014.3
20260505230003 57 268 0.0 1.7 0.00 0.10 0.10 85 1014.3
20260505225503 57 259 0.9 5.2 0.00 0.10 0.10 85 1014.3
20260505225003 57 257 0.9 5.2 0.00 0.10 0.10 85 1014.3
20260505224503 57 259 0.0 2.6 0.00 0.10 0.10 86 1014.3
20260505224024 57 258 0.0 1.7 0.00 0.10 0.10 87 1014.3
20260505223524 56 244 0.0 1.7 0.00 0.10 0.10 87 1014.3
20260505223003 56 244 0.0 1.7 0.00 0.10 0.10 87 1014.3
20260505222503 56 245 0.0 1.7 0.00 0.10 0.10 87 1014.3
20260505222003 56 243 0.0 2.6 0.00 0.10 0.10 87 1014.3
20260505221524 56 252 0.0 2.6 0.00 0.10 0.10 88 1014.3
20260505221003 56 251 0.0 2.6 0.00 0.10 0.10 89 1014.3
20260505220503 56 240 0.0 1.7 0.00 0.10 0.10 89 1014.3
20260505220003 56 256 0.0 1.7 0.00 0.10 0.10 90 1014.3
20260505215524 56 257 0.0 1.7 0.00 0.10 0.10 90 1014.3
20260505215003 56 256 0.0 0.9 0.00 0.10 0.10 90 1014.3
20260505214524 56 255 0.0 0.9 0.00 0.10 0.10 91 1014.3
20260505214003 56 259 0.0 2.6 0.00 0.10 0.10 91 1014.3
20260505213503 56 281 0.0 2.6 0.00 0.10 0.10 91 1014.3
20260505213003 56 287 0.0 3.5 0.00 0.10 0.10 91 1014.3
20260505212503 55 265 0.0 3.5 0.00 0.10 0.10 92 1014.3
20260505212003 55 236 0.0 0.9 0.00 0.10 0.10 92 1014.3
20260505211503 55 233 0.0 1.7 0.00 0.10 0.10 92 1014.3
20260505211003 55 254 0.9 2.6 0.00 0.10 0.10 92 1014.3
20260505210503 55 279 0.9 2.6 0.00 0.10 0.10 93 1014.3
20260505210003 55 292 0.0 2.6 0.00 0.10 0.10 93 1014.3
20260505205524 55 233 0.0 2.6 0.00 0.10 0.10 93 1014.3
20260505205003 55 226 0.0 2.6 0.00 0.10 0.10 94 1014.3
20260505204503 55 261 0.0 1.7 0.00 0.10 0.10 94 1014.3
20260505204024 55 327 0.0 2.6 0.00 0.10 0.10 94 1014.3
20260505203503 55 356 0.0 2.6 0.00 0.10 0.10 94 1014.3
20260505203024 55 335 0.0 2.6 0.00 0.10 0.10 94 1014.3
20260505202503 54 296 0.0 2.6 0.00 0.10 0.10 94 1014.3
20260505202003 54 251 0.0 2.6 0.00 0.10 0.10 95 1014.3
20260505201503 54 224 0.0 4.3 0.00 0.10 0.10 95 1014.3
20260505201003 54 237 0.9 4.3 0.00 0.10 0.10 94 1014.3
20260505200503 54 298 0.0 3.5 0.00 0.10 0.10 95 1014.3
20260505200024 54 257 0.0 4.3 0.00 0.10 0.10 95 1014.3
20260505195503 54 248 0.0 4.3 0.00 0.10 0.10 95 1014.3
20260505195003 54 263 0.9 2.6 0.00 0.10 0.10 95 1014.3
20260505194524 54 231 0.9 3.5 0.00 0.10 0.10 95 1014.3
20260505194003 54 233 0.9 4.3 0.00 0.10 0.10 95 1014.3
20260505193503 54 242 0.9 4.3 0.00 0.10 0.10 95 1014.3
20260505193003 54 236 0.9 3.5 0.00 0.10 0.10 96 1014.3
20260505192503 54 244 0.9 3.5 0.00 0.10 0.10 95 1014.3
20260505192003 53 253 0.0 2.6 0.00 0.10 0.10 95 1014.3
20260505191503 53 226 0.0 4.3 0.00 0.10 0.10 95 1014.3
20260505191003 53 236 0.9 5.2 0.00 0.10 0.10 95 1014.3
20260505190503 53 238 0.9 5.2 0.00 0.10 0.10 95 1014.3
20260505190024 53 236 0.0 1.7 0.00 0.10 0.10 95 1014.3
20260505185503 54 266 0.0 1.7 0.00 0.10 0.10 95 1014.3
20260505185003 54 251 0.0 2.6 0.00 0.10 0.10 95 1014.3
20260505184503 54 256 0.9 3.5 0.00 0.10 0.10 95 1014.3
20260505184003 54 264 0.9 3.5 0.01 0.10 0.10 96 1014.3
20260505183503 54 256 0.9 4.3 0.01 0.10 0.10 96 1014.3
20260505183024 54 276 0.9 4.3 0.01 0.10 0.10 95 1014.3
20260505182503 54 298 0.0 1.7 0.01 0.10 0.10 96 1014.3
20260505182003 54 239 0.9 2.6 0.01 0.10 0.10 96 1014.3
20260505181503 53 251 0.9 2.6 0.01 0.10 0.10 96 1014.3
20260505181003 53 273 0.9 3.5 0.01 0.10 0.10 95 1014.3
20260505180503 53 261 0.9 3.5 0.01 0.10 0.10 95 1014.3
20260505180003 53 257 0.0 1.7 0.01 0.10 0.10 95 1014.3
20260505175503 53 265 0.0 2.6 0.01 0.10 0.10 95 1014.3
20260505175003 53 289 0.0 2.6 0.01 0.10 0.10 95 1014.3
20260505174503 53 298 0.9 2.6 0.01 0.10 0.10 95 1014.3
20260505174003 53 298 0.0 2.6 0.00 0.09 0.09 95 1014.3
20260505173503 53 340 0.0 2.6 0.00 0.09 0.09 95 1014.3
20260505173003 53 325 0.0 2.6 0.01 0.09 0.09 95 1014.3
20260505172524 53 296 0.0 1.7 0.02 0.09 0.09 95 1014.3
20260505172003 53 297 0.0 2.6 0.03 0.09 0.09 95 1014.3
20260505171503 53 315 0.9 4.3 0.03 0.09 0.09 95 1014.3
20260505171003 52 321 0.9 4.3 0.04 0.09 0.09 95 1014.3
20260505170503 52 309 0.9 5.2 0.05 0.09 0.09 95 1014.3
20260505170003 52 310 0.9 5.2 0.05 0.09 0.09 95 1014.3
20260505165504 52 254 0.0 4.3 0.05 0.09 0.09 95 1014.3
20260505165003 52 233 0.0 4.3 0.05 0.09 0.09 95 1014.3
20260505164503 52 217 0.9 2.6 0.05 0.09 0.09 95 1014.3
20260505164003 52 217 0.9 6.1 0.05 0.09 0.09 95 1014.3
20260505163503 52 248 0.9 6.1 0.05 0.09 0.09 95 1014.3
20260505163003 52 268 0.9 4.3 0.04 0.08 0.08 95 1014.3
20260505162524 52 252 0.0 3.5 0.03 0.07 0.07 94 1014.3
20260505162003 52 234 0.0 5.2 0.02 0.06 0.06 94 1014.3
20260505161503 52 231 0.0 3.5 0.02 0.06 0.06 94 1014.3
20260505161003 52 231 0.0 1.7 0.01 0.05 0.05 94 1014.3
20260505160524 52 230 0.0 1.7 0.00 0.04 0.04 94 1014.3
20260505153003 51 229 0.0 0.9 0.00 0.04 0.04 94 1014.3
20260505152504 51 229 0.0 0.9 0.00 0.04 0.04 94 1014.3
20260505152003 51 229 0.0 2.6 0.00 0.04 0.04 94 1014.3
20260505151503 51 228 0.0 2.6 0.00 0.04 0.04 94 1014.3
20260505151003 51 227 0.0 2.6 0.00 0.04 0.04 94 1014.3
20260505150503 51 225 0.0 2.6 0.00 0.04 0.04 94 1014.3
20260505140503 50 219 0.9 1.7 0.00 0.04 0.04 94 1014.3
20260505125003 50 221 0.9 2.6 0.01 0.04 0.04 93 1014.3
20260505124524 50 221 0.9 3.5 0.01 0.04 0.04 93 1014.3
20260505124003 50 221 0.9 3.5 0.01 0.04 0.04 93 1014.3
20260505123503 50 221 0.0 2.6 0.01 0.04 0.04 93 1014.3
20260505123003 50 222 0.9 2.6 0.01 0.04 0.04 93 1014.3
20260505122503 50 222 0.9 2.6 0.02 0.04 0.04 93 1014.3
20260505122003 50 222 0.0 1.7 0.02 0.04 0.04 93 1014.3
20260505121503 50 224 0.0 1.7 0.02 0.04 0.04 93 1014.3
20260505121003 50 224 0.0 1.7 0.02 0.04 0.04 93 1014.3
20260505120503 50 223 0.0 2.6 0.01 0.03 0.03 93 1014.3
20260505120001 50 222 0.9 2.6 0.01 0.03 0.03 93 1014.3
20260505115501 50 221 0.0 1.7 0.01 0.03 0.03 93 1014.3
20260505115001 50 221 0.0 1.7 0.01 0.03 0.03 93 1014.3
20260505114501 50 218 0.9 2.6 0.01 0.03 0.03 93 1014.3
20260505114022 50 215 0.9 2.6 0.01 0.03 0.03 93 1014.3
20260505113501 50 212 0.0 1.7 0.01 0.03 0.03 93 1014.3
20260505113001 51 211 0.0 0.9 0.01 0.03 0.03 93 1014.3
20260505112522 50 211 0.0 0.9 0.00 0.02 0.03 93 1014.3
20260505112022 50 211 0.0 0.9 0.01 0.02 0.02 93 1014.3
20260505111522 50 211 0.0 0.9 0.01 0.02 0.02 93 1014.3
20260505111001 50 211 0.0 0.9 0.01 0.02 0.02 93 1014.3
20260505110501 50 211 0.0 0.9 0.02 0.02 0.02 93 1014.3
20260505102001 50 235 0.9 2.6 0.01 0.01 0.01 92 1014.6
20260505101501 50 236 0.0 1.7 0.01 0.01 0.01 91 1014.6
20260505101002 50 235 0.0 1.7 0.01 0.01 0.01 92 1014.6
20260505100502 50 234 0.0 1.7 0.00 0.00 0.00 92 1014.6
20260505100001 50 228 0.0 0.9 0.00 0.00 0.00 92 1014.6
20260505095501 50 228 0.0 1.7 0.00 0.00 0.00 91 1014.6
20260505095002 50 228 0.0 2.6 0.00 0.00 0.00 91 1014.6
20260505094501 50 227 0.0 2.6 0.00 0.00 0.00 91 1014.6
20260505094001 50 227 0.0 2.6 0.00 0.00 0.00 91 1014.6
20260505093501 50 223 0.0 1.7 0.00 0.00 0.00 91 1014.6
20260505093001 50 214 0.0 1.7 0.00 0.00 0.00 91 1014.6
20260505092502 50 198 0.0 1.7 0.00 0.00 0.00 91 1014.6
20260505092022 50 198 0.0 1.7 0.00 0.00 0.00 90 1014.6
20260505091502 50 198 0.0 0.9 0.00 0.00 0.00 91 1014.6
20260505091023 50 0 0.0 0.0 0.00 0.00 0.00 90 1014.6
20260505090523 50 198 0.0 1.7 0.00 0.00 0.00 90 1014.6
20260505090002 50 198 0.0 1.7 0.00 0.00 0.00 90 1014.6
20260505085501 50 195 0.0 1.7 0.00 0.00 0.00 90 1014.6
20260505085002 50 206 0.9 3.5 0.00 0.00 0.00 90 1014.6
20260505084501 50 214 0.9 3.5 0.00 0.00 0.00 90 1014.6
20260505084023 50 228 0.0 2.6 0.00 0.00 0.00 90 1014.6
20260505083502 50 232 0.9 2.6 0.00 0.00 0.00 89 1014.6
20260505083001 50 237 0.9 2.6 0.00 0.00 0.00 89 1014.6
20260505082522 50 251 0.9 2.6 0.00 0.00 0.00 89 1014.6
20260505082001 51 296 0.0 2.6 0.00 0.00 0.00 89 1014.6
20260505081502 51 330 0.0 1.7 0.00 0.00 0.00 89 1014.6
20260505081023 51 331 0.0 0.9 0.00 0.00 0.00 89 1014.6
20260505080501 51 331 0.0 0.9 0.00 0.00 0.00 89 1014.6
20260505080002 51 331 0.0 0.9 0.00 0.00 0.00 88 1014.6
20260505075523 51 332 0.0 0.9 0.00 0.00 0.00 89 1014.6
20260505075002 51 333 0.0 0.9 0.00 0.00 0.00 88 1014.6
20260505074501 51 333 0.0 0.9 0.00 0.00 0.00 88 1014.6
20260505074002 51 332 0.0 1.7 0.00 0.00 0.00 88 1014.6
20260505073522 51 335 0.0 3.5 0.00 0.00 0.00 87 1014.6
20260505073002 51 341 0.9 3.5 0.00 0.00 0.00 87 1014.6
20260505072502 51 343 0.9 3.5 0.00 0.00 0.00 87 1014.6
20260505072002 51 346 1.7 4.3 0.00 0.00 0.00 87 1014.6
20260505071501 51 351 0.9 4.3 0.00 0.00 0.00 87 1014.6
20260505071001 51 359 0.9 4.3 0.00 0.00 0.00 86 1014.6
20260505070523 51 7 0.0 2.6 0.00 0.00 0.00 86 1014.6
20260505070005 52 348 0.9 5.2 0.00 0.00 0.00 86 1014.6
20260505065502 52 339 0.9 5.2 0.00 0.00 0.00 86 1014.6
20260505065023 52 348 0.0 1.7 0.00 0.00 0.00 86 1014.6
20260505064501 52 345 0.0 1.7 0.00 0.00 0.00 86 1014.6
20260505064001 52 340 0.9 5.2 0.00 0.00 0.00 85 1014.6
20260505063501 52 339 0.9 5.2 0.00 0.00 0.00 85 1014.6
20260505063001 52 342 0.0 1.7 0.00 0.00 0.00 85 1014.6
20260505062501 52 341 0.0 0.9 0.00 0.00 0.00 85 1014.6
20260505062001 52 341 0.0 0.9 0.00 0.00 0.00 85 1014.6
20260505061501 52 340 0.0 1.7 0.00 0.00 0.00 85 1014.6
20260505061023 52 337 0.0 1.7 0.00 0.00 0.00 84 1014.6
20260505060502 52 344 0.0 1.7 0.00 0.00 0.00 84 1014.6
20260505060002 52 4 0.0 1.7 0.00 0.00 0.00 84 1014.6
20260505055522 52 4 0.0 0.9 0.00 0.00 0.00 84 1014.6
20260505055001 53 0 0.0 0.0 0.00 0.00 0.00 85 1014.6
20260505054502 53 0 0.0 0.0 0.00 0.00 0.00 85 1014.6
20260505054001 53 350 0.0 1.7 0.00 0.00 0.00 85 1014.6
20260505053523 53 349 0.0 1.7 0.00 0.00 0.00 85 1014.6
20260505053002 53 347 0.0 1.7 0.00 0.00 0.00 85 1014.6
20260505052501 53 349 0.0 0.9 0.00 0.00 0.00 85 1014.7
20260505052023 53 351 0.0 1.7 0.00 0.00 0.00 85 1014.8
20260505051502 53 352 0.0 1.7 0.00 0.00 0.00 85 1015.1
20260505051002 53 354 0.0 1.7 0.00 0.00 0.00 85 1015.3
20260505050502 53 9 0.0 1.7 0.00 0.00 0.00 85 1015.3
20260505041502 53 7 0.0 1.7 0.00 0.00 0.00 84 1014.3
20260505041001 53 5 0.0 0.9 0.00 0.00 0.00 84 1014.3
20260505040501 53 10 0.0 0.9 0.00 0.00 0.00 83 1014.3
20260505040002 53 8 0.0 1.7 0.00 0.00 0.00 83 1014.3
20260505035501 53 8 0.0 1.7 0.00 0.00 0.00 83 1014.3
20260505035001 53 13 0.0 1.7 0.00 0.00 0.00 83 1014.3
20260505034501 53 16 0.0 1.7 0.00 0.00 0.00 83 1014.3
20260505034002 53 23 0.0 0.9 0.00 0.00 0.00 82 1014.3
20260505033502 53 17 0.0 2.6 0.00 0.00 0.00 82 1014.3
20260505033023 54 360 0.0 2.6 0.00 0.00 0.00 82 1014.3
20260505032502 54 331 0.0 0.9 0.00 0.00 0.00 82 1014.3
20260505032023 54 322 0.0 1.7 0.00 0.00 0.00 82 1014.3
20260505031502 54 22 0.0 1.7 0.00 0.00 0.00 82 1014.3
20260505031002 54 8 0.0 2.6 0.00 0.00 0.00 82 1014.2
20260505030502 54 336 0.0 2.6 0.00 0.00 0.00 82 1014.2
20260505030003 54 319 0.0 3.5 0.00 0.00 0.00 82 1014.2
20260505025502 54 328 0.9 3.5 0.00 0.00 0.00 82 1014.2
20260505025001 55 313 0.0 3.5 0.00 0.00 0.00 82 1014.2
20260505024502 55 272 0.0 2.6 0.00 0.00 0.00 82 1014.2
20260505024002 55 317 0.0 1.7 0.00 0.00 0.00 82 1014.2
20260505023523 55 312 0.0 4.3 0.00 0.00 0.00 82 1014.2
20260505023023 55 314 0.0 4.3 0.00 0.00 0.00 83 1014.2
20260505022502 55 327 0.0 1.7 0.00 0.00 0.00 82 1014.2
20260505022002 56 338 0.0 2.6 0.00 0.00 0.00 82 1014.2
20260505021502 56 336 0.0 7.8 0.00 0.00 0.00 82 1014.2
20260505021002 56 329 0.0 7.8 0.00 0.00 0.00 82 1014.6
20260505020502 56 319 0.0 2.6 0.00 0.00 0.00 81 1014.6
20260505020002 56 325 0.0 2.6 0.00 0.00 0.00 81 1014.6
20260505015502 56 328 0.0 2.6 0.00 0.00 0.00 81 1014.6
20260505015002 56 241 0.0 2.6 0.00 0.00 0.00 81 1014.6
20260505014502 56 342 0.0 3.5 0.00 0.00 0.00 80 1014.6
20260505014002 56 355 0.0 3.5 0.00 0.00 0.00 80 1014.6
20260505013502 56 345 0.9 3.5 0.00 0.00 0.00 79 1014.6
20260505013002 56 339 0.9 3.5 0.00 0.00 0.00 79 1014.6
20260505012502 56 286 0.0 2.6 0.00 0.00 0.00 78 1014.6
20260505012001 57 336 0.0 2.6 0.00 0.00 0.00 78 1014.6
20260505011502 57 352 0.0 3.5 0.00 0.00 0.00 77 1014.6
20260505011002 57 353 0.9 5.2 0.00 0.00 0.00 76 1014.9
20260505010502 57 349 0.9 5.2 0.00 0.00 0.00 76 1014.9
20260505010002 58 341 1.7 9.6 0.00 0.00 0.00 75 1014.9
20260505005502 58 339 1.7 9.6 0.00 0.00 0.00 74 1014.9
20260505005002 58 336 0.0 2.6 0.00 0.00 0.00 74 1014.9
20260505004502 58 5 0.9 3.5 0.00 0.00 0.00 74 1014.9
20260505004023 59 7 0.9 5.2 0.00 0.00 0.00 73 1014.9
20260505003502 59 352 0.9 5.2 0.00 0.00 0.00 73 1014.9
20260505003023 59 351 0.9 2.6 0.00 0.00 0.00 72 1014.9
20260505002502 59 343 0.9 4.3 0.00 0.00 0.00 70 1014.9
20260505002002 59 354 0.9 4.3 0.00 0.00 0.00 69 1014.9
20260505001502 60 2 0.9 3.5 0.00 0.00 0.00 69 1014.9
20260505001002 60 357 0.9 3.5 0.00 0.00 0.00 69 1014.7
20260505000502 60 309 0.9 4.3 0.00 0.00 0.00 68 1014.7
20260505000002 60 274 0.9 4.3 0.00 0.00 0.00 67 1014.7